Time,TemperatureF,DewpointF,PressureIn,WindDirection,WindDirectionDegrees,WindSpeedMPH,WindSpeedGustMPH,Humidity,HourlyPrecipIn,Conditions,Clouds,dailyrainin,SoftwareType,DateUTC
2013-06-07 00:07:00,68.7,65.0,29.77,SSE,165,5.0,10.0,88,0.00,,,0.00,weatherlink.com 1.10,2013-06-07 04:07:00,
2013-06-07 00:22:00,68.6,65.0,29.76,South,181,4.0,8.0,88,0.00,,,0.00,weatherlink.com 1.10,2013-06-07 04:22:00,
2013-06-07 00:37:00,68.4,65.0,29.76,SSE,162,3.0,6.0,89,0.00,,,0.00,weatherlink.com 1.10,2013-06-07 04:37:00,
2013-06-07 00:52:00,68.2,65.0,29.75,SSW,194,1.0,6.0,89,0.00,,,0.00,weatherlink.com 1.10,2013-06-07 04:52:00,
2013-06-07 01:07:00,68.0,65.0,29.75,South,190,0.0,3.0,90,0.00,,,0.00,weatherlink.com 1.10,2013-06-07 05:07:00,
2013-06-07 01:22:00,67.7,65.0,29.75,South,184,1.0,3.0,90,0.00,,,0.00,weatherlink.com 1.10,2013-06-07 05:22:00,
2013-06-07 01:37:00,67.5,65.0,29.74,South,169,1.0,3.0,91,0.00,,,0.00,weatherlink.com 1.10,2013-06-07 05:37:00,
2013-06-07 01:52:00,67.4,65.0,29.74,SSE,150,0.0,2.0,91,0.00,,,0.00,weatherlink.com 1.10,2013-06-07 05:52:00,
2013-06-07 02:07:00,67.2,65.0,29.73,South,174,0.0,1.0,91,0.00,,,0.00,weatherlink.com 1.10,2013-06-07 06:07:00,
2013-06-07 02:22:00,66.9,65.0,29.72,SSE,165,0.0,1.0,92,0.00,,,0.00,weatherlink.com 1.10,2013-06-07 06:22:00,
2013-06-07 02:37:00,66.7,64.0,29.72,SW,219,0.0,2.0,92,0.00,,,0.00,weatherlink.com 1.10,2013-06-07 06:37:00,
2013-06-07 02:53:00,66.5,65.0,29.71,SW,218,0.0,1.0,93,0.00,,,0.00,weatherlink.com 1.10,2013-06-07 06:53:00,
2013-06-07 03:08:00,66.3,65.0,29.71,South,183,0.0,1.0,94,0.00,,,0.00,weatherlink.com 1.10,2013-06-07 07:08:00,
2013-06-07 03:23:00,66.6,65.0,29.70,South,191,2.0,2.0,93,0.00,,,0.00,weatherlink.com 1.10,2013-06-07 07:23:00,
2013-06-07 03:38:00,66.7,65.0,29.70,South,179,2.0,6.0,93,0.00,,,0.00,weatherlink.com 1.10,2013-06-07 07:38:00,
2013-06-07 03:53:00,66.4,64.0,29.70,SSW,201,3.0,4.0,93,0.01,,,0.01,weatherlink.com 1.10,2013-06-07 07:53:00,
2013-06-07 04:08:00,65.9,64.0,29.69,SW,236,0.0,3.0,94,0.01,,,0.01,weatherlink.com 1.10,2013-06-07 08:08:00,
2013-06-07 04:23:00,65.6,64.0,29.69,SW,236,0.0,0.0,95,0.02,,,0.02,weatherlink.com 1.10,2013-06-07 08:23:00,
2013-06-07 04:38:00,65.9,65.0,29.68,NNW,330,0.0,1.0,95,0.02,,,0.02,weatherlink.com 1.10,2013-06-07 08:38:00,
2013-06-07 04:53:00,65.3,64.0,29.68,SSE,165,0.0,1.0,96,0.01,,,0.02,weatherlink.com 1.10,2013-06-07 08:53:00,
2013-06-07 05:08:00,65.1,64.0,29.68,SE,136,0.0,1.0,96,0.01,,,0.02,weatherlink.com 1.10,2013-06-07 09:08:00,
2013-06-07 05:23:00,65.1,64.0,29.68,NE,50,0.0,1.0,96,0.01,,,0.03,weatherlink.com 1.10,2013-06-07 09:23:00,
2013-06-07 05:38:00,65.1,64.0,29.68,NW,326,1.0,1.0,96,0.01,,,0.03,weatherlink.com 1.10,2013-06-07 09:38:00,
2013-06-07 05:53:00,65.5,65.0,29.67,NNW,334,0.0,1.0,97,0.01,,,0.03,weatherlink.com 1.10,2013-06-07 09:53:00,
2013-06-07 06:08:00,65.2,64.0,29.68,NNW,340,0.0,1.0,96,0.01,,,0.03,weatherlink.com 1.10,2013-06-07 10:08:00,
2013-06-07 06:23:00,65.3,64.0,29.68,North,4,0.0,1.0,96,0.00,,,0.03,weatherlink.com 1.10,2013-06-07 10:23:00,
2013-06-07 06:38:00,65.1,64.0,29.68,NNW,332,1.0,1.0,97,0.00,,,0.03,weatherlink.com 1.10,2013-06-07 10:38:00,
2013-06-07 06:53:00,65.1,64.0,29.68,NNE,29,1.0,2.0,96,0.00,,,0.03,weatherlink.com 1.10,2013-06-07 10:53:00,
2013-06-07 07:08:00,65.5,65.0,29.68,NNW,331,1.0,2.0,97,0.00,,,0.03,weatherlink.com 1.10,2013-06-07 11:08:00,
2013-06-07 07:23:00,65.4,64.0,29.68,NNW,336,1.0,1.0,96,0.00,,,0.03,weatherlink.com 1.10,2013-06-07 11:23:00,
2013-06-07 07:38:00,65.9,65.0,29.68,NNW,336,1.0,3.0,96,0.00,,,0.03,weatherlink.com 1.10,2013-06-07 11:38:00,
2013-06-07 07:53:00,65.8,65.0,29.68,NW,324,1.0,2.0,96,0.00,,,0.03,weatherlink.com 1.10,2013-06-07 11:53:00,
2013-06-07 08:08:00,66.5,65.0,29.68,NW,326,2.0,3.0,95,0.00,,,0.03,weatherlink.com 1.10,2013-06-07 12:08:00,
2013-06-07 08:23:00,66.0,65.0,29.69,NNW,339,3.0,4.0,96,0.00,,,0.03,weatherlink.com 1.10,2013-06-07 12:23:00,
2013-06-07 08:38:00,66.1,65.0,29.69,NNW,328,0.0,5.0,96,0.00,,,0.03,weatherlink.com 1.10,2013-06-07 12:38:00,
2013-06-07 08:53:00,66.4,65.0,29.69,North,355,2.0,6.0,96,0.01,,,0.04,weatherlink.com 1.10,2013-06-07 12:53:00,
2013-06-07 09:08:00,66.1,65.0,29.70,NNW,339,5.0,9.0,96,0.02,,,0.05,weatherlink.com 1.10,2013-06-07 13:08:00,
2013-06-07 09:23:00,66.5,65.0,29.70,North,1,3.0,8.0,95,0.02,,,0.05,weatherlink.com 1.10,2013-06-07 13:23:00,
2013-06-07 09:38:00,66.6,66.0,29.70,North,356,4.0,7.0,96,0.03,,,0.06,weatherlink.com 1.10,2013-06-07 13:38:00,
2013-06-07 09:53:00,66.8,66.0,29.70,NW,323,4.0,8.0,96,0.03,,,0.07,weatherlink.com 1.10,2013-06-07 13:53:00,
2013-06-07 10:08:00,67.3,66.0,29.70,NNW,332,1.0,7.0,95,0.03,,,0.08,weatherlink.com 1.10,2013-06-07 14:08:00,
2013-06-07 10:23:00,68.0,66.0,29.70,NNW,344,5.0,7.0,94,0.03,,,0.08,weatherlink.com 1.10,2013-06-07 14:23:00,
2013-06-07 10:38:00,68.6,67.0,29.70,NNW,330,3.0,10.0,94,0.02,,,0.08,weatherlink.com 1.10,2013-06-07 14:38:00,
2013-06-07 10:53:00,69.1,66.0,29.70,North,4,10.0,14.0,91,0.01,,,0.08,weatherlink.com 1.10,2013-06-07 14:53:00,
2013-06-07 11:08:00,69.3,67.0,29.70,North,350,6.0,10.0,92,0.00,,,0.08,weatherlink.com 1.10,2013-06-07 15:08:00,
2013-06-07 11:23:00,69.1,67.0,29.70,NW,325,6.0,12.0,92,0.00,,,0.08,weatherlink.com 1.10,2013-06-07 15:23:00,
2013-06-07 11:38:00,69.6,67.0,29.70,NNW,342,7.0,12.0,91,0.00,,,0.08,weatherlink.com 1.10,2013-06-07 15:38:00,
2013-06-07 11:53:00,70.5,67.0,29.71,NNW,337,6.0,12.0,89,0.00,,,0.08,weatherlink.com 1.10,2013-06-07 15:53:00,
2013-06-07 12:08:00,71.6,68.0,29.71,NNW,347,13.0,16.0,87,0.00,,,0.08,weatherlink.com 1.10,2013-06-07 16:08:00,
2013-06-07 12:23:00,72.0,68.0,29.71,NNE,14,6.0,15.0,86,0.00,,,0.08,weatherlink.com 1.10,2013-06-07 16:23:00,
2013-06-07 12:38:00,71.6,67.0,29.71,NNE,21,8.0,16.0,85,0.00,,,0.08,weatherlink.com 1.10,2013-06-07 16:38:00,
2013-06-07 12:53:00,71.8,67.0,29.71,North,8,5.0,13.0,85,0.00,,,0.08,weatherlink.com 1.10,2013-06-07 16:53:00,
2013-06-07 13:08:00,71.9,67.0,29.71,North,3,15.0,16.0,83,0.00,,,0.08,weatherlink.com 1.10,2013-06-07 17:08:00,
2013-06-07 13:23:00,72.8,67.0,29.71,NW,326,7.0,13.0,82,0.00,,,0.08,weatherlink.com 1.10,2013-06-07 17:23:00,
2013-06-07 13:38:00,74.2,67.0,29.71,North,8,9.0,16.0,79,0.00,,,0.08,weatherlink.com 1.10,2013-06-07 17:38:00,
2013-06-07 13:54:00,75.9,68.0,29.70,North,356,9.0,16.0,76,0.00,,,0.08,weatherlink.com 1.10,2013-06-07 17:54:00,
2013-06-07 14:08:00,75.2,66.0,29.70,North,356,8.0,16.0,74,0.00,,,0.08,weatherlink.com 1.10,2013-06-07 18:08:00,
2013-06-07 14:24:00,75.7,67.0,29.70,NE,44,2.0,14.0,75,0.00,,,0.08,weatherlink.com 1.10,2013-06-07 18:24:00,
2013-06-07 14:39:00,75.4,67.0,29.70,NNW,346,7.0,13.0,75,0.00,,,0.08,weatherlink.com 1.10,2013-06-07 18:39:00,
2013-06-07 14:54:00,77.0,67.0,29.70,North,1,10.0,11.0,71,0.00,,,0.08,weatherlink.com 1.10,2013-06-07 18:54:00,
2013-06-07 15:09:00,77.9,67.0,29.68,NNW,337,10.0,12.0,70,0.00,,,0.08,weatherlink.com 1.10,2013-06-07 19:09:00,
2013-06-07 15:24:00,77.4,67.0,29.68,NNW,341,5.0,12.0,71,0.00,,,0.08,weatherlink.com 1.10,2013-06-07 19:24:00,
2013-06-07 15:39:00,77.9,67.0,29.67,North,5,9.0,10.0,70,0.00,,,0.08,weatherlink.com 1.10,2013-06-07 19:39:00,
2013-06-07 15:54:00,78.9,66.0,29.67,NNW,348,6.0,12.0,65,0.00,,,0.08,weatherlink.com 1.10,2013-06-07 19:54:00,
2013-06-07 16:09:00,78.7,67.0,29.68,NNE,19,6.0,11.0,67,0.00,,,0.08,weatherlink.com 1.10,2013-06-07 20:09:00,
2013-06-07 16:24:00,78.2,67.0,29.67,North,354,8.0,14.0,69,0.00,,,0.08,weatherlink.com 1.10,2013-06-07 20:24:00,
2013-06-07 16:39:00,78.1,67.0,29.68,NNW,336,8.0,16.0,69,0.00,,,0.08,weatherlink.com 1.10,2013-06-07 20:39:00,
2013-06-07 17:09:00,76.5,67.0,29.69,NNW,338,4.0,15.0,73,0.00,,,0.08,weatherlink.com 1.10,2013-06-07 21:09:00,
2013-06-07 17:24:00,76.4,68.0,29.68,NNE,30,5.0,10.0,74,0.00,,,0.08,weatherlink.com 1.10,2013-06-07 21:24:00,
2013-06-07 17:39:00,75.7,67.0,29.69,NNE,26,8.0,17.0,74,0.00,,,0.08,weatherlink.com 1.10,2013-06-07 21:39:00,
2013-06-07 18:09:00,76.0,67.0,29.69,NNW,335,7.0,14.0,73,0.00,,,0.08,weatherlink.com 1.10,2013-06-07 22:09:00,
2013-06-07 18:54:00,74.7,66.0,29.71,NE,47,4.0,9.0,75,0.00,,,0.08,weatherlink.com 1.10,2013-06-07 22:54:00,
2013-06-07 19:09:00,74.1,67.0,29.71,NNW,342,2.0,4.0,78,0.00,,,0.08,weatherlink.com 1.10,2013-06-07 23:09:00,
2013-06-07 19:24:00,73.6,67.0,29.71,NW,326,2.0,4.0,80,0.00,,,0.08,weatherlink.com 1.10,2013-06-07 23:24:00,
2013-06-07 19:39:00,72.0,67.0,29.74,SSE,160,0.0,2.0,85,0.00,,,0.08,weatherlink.com 1.10,2013-06-07 23:39:00,
2013-06-07 19:54:00,70.5,67.0,29.74,NE,40,2.0,2.0,89,0.00,,,0.08,weatherlink.com 1.10,2013-06-07 23:54:00,
2013-06-07 20:09:00,69.4,67.0,29.76,SE,135,4.0,5.0,93,0.00,,,0.08,weatherlink.com 1.10,2013-06-08 00:09:00,
2013-06-07 20:24:00,67.9,64.0,29.78,North,11,14.0,23.0,87,0.08,,,0.16,weatherlink.com 1.10,2013-06-08 00:24:00,
2013-06-07 20:39:00,63.0,61.0,29.79,SSE,150,2.0,9.0,93,0.39,,,0.47,weatherlink.com 1.10,2013-06-08 00:39:00,
2013-06-07 20:54:00,62.5,61.0,29.79,South,187,6.0,9.0,96,0.51,,,0.59,weatherlink.com 1.10,2013-06-08 00:54:00,
2013-06-07 21:09:00,62.4,62.0,29.80,SW,214,3.0,6.0,97,0.68,,,0.76,weatherlink.com 1.10,2013-06-08 01:09:00,
2013-06-07 21:24:00,62.3,62.0,29.80,SSE,167,3.0,7.0,97,0.57,,,0.77,weatherlink.com 1.10,2013-06-08 01:24:00,
2013-06-07 21:54:00,62.0,62.0,29.80,South,170,2.0,5.0,98,0.18,,,0.77,weatherlink.com 1.10,2013-06-08 01:54:00,
2013-06-07 22:09:00,62.3,62.0,29.82,North,352,3.0,4.0,98,0.01,,,0.77,weatherlink.com 1.10,2013-06-08 02:09:00,
2013-06-07 22:24:00,62.1,62.0,29.82,SW,215,0.0,1.0,98,0.00,,,0.77,weatherlink.com 1.10,2013-06-08 02:24:00,
2013-06-07 22:39:00,62.0,62.0,29.82,West,260,0.0,1.0,98,0.00,,,0.77,weatherlink.com 1.10,2013-06-08 02:39:00,
2013-06-07 22:54:00,62.2,62.0,29.82,NE,37,1.0,2.0,98,0.00,,,0.77,weatherlink.com 1.10,2013-06-08 02:54:00,
2013-06-07 23:09:00,62.5,62.0,29.83,NNE,15,0.0,4.0,98,0.00,,,0.77,weatherlink.com 1.10,2013-06-08 03:09:00,
2013-06-07 23:24:00,62.8,63.0,29.83,WSW,239,0.0,2.0,99,0.00,,,0.77,weatherlink.com 1.10,2013-06-08 03:24:00,
2013-06-07 23:39:00,62.6,62.0,29.83,NNW,333,1.0,3.0,98,0.00,,,0.77,weatherlink.com 1.10,2013-06-08 03:39:00,
2013-06-07 23:54:00,62.4,62.0,29.84,NE,38,1.0,3.0,98,0.00,,,0.77,weatherlink.com 1.10,2013-06-08 03:54:00,